Clovis, NM

5:44 PM MST on February 19, 2018 (GMT -0700)
Clovis Municipal

Weather History for KCVN - October, 2012

Change the Weather History Date:

Sunday, October 28, 2012

  Actual Average Record
Temperature  
Mean Temperature 46 °F -  
Max Temperature 62 °F 67 °F 87 °F (1933)
Min Temperature 30 °F 38 °F 21 °F (1925)
Degree Days  
Heating Degree Days 19    
Moisture  
Dew Point 22 °F    
Average Humidity 42    
Maximum Humidity 64    
Minimum Humidity 24    
Precipitation  
Precipitation 0.00 in - - ()
Sea Level Pressure  
Sea Level Pressure 30.20 in    
Wind  
Wind Speed 9 mph (South)    
Max Wind Speed 20 mph    
Max Gust Speed 24 mph    
Visibility 10 miles    
Events      
Averages and records for this station are not official NWS values.
T = Trace of Precipitation, MM = Missing Value Source: NWS Daily Summary

Daily Weather History Graph

Daily Weather History Graph

Search for Another Location

Airport or City:

Trip Planner

Search our weather history database for the weather conditions in past years. The results will help you decide how hot, cold, wet, or windy it might be!

Date:

Astronomy

Oct. 28, 2012 Rise Set
Actual Time 7:09 AM MDT 6:02 PM MDT
Civil Twilight 6:43 AM MDT 6:28 PM MDT
Nautical Twilight 6:13 AM MDT 6:57 PM MDT
Astronomical Twilight 5:44 AM MDT 7:26 PM MDT
Moon 5:21 PM MDT (10/28) 6:05 AM MDT (10/28)
Length of Visible Light 11h 44m
Length of Day
10h 53m
Waxing Gibbous, 99% of the Moon is Illuminated
Oct 28
Waxing Gibbous
Oct 29
Full
Nov 6
Last Quarter
Nov 13
New
Nov 20
First Quarter

Hourly Weather History & Observations

Time (MDT) Temp. Windchill Dew Point Humidity Pressure Visibility Wind Dir Wind Speed Gust Speed Precip Events Conditions
12:15 AM 33.8 °F 27.0 °F 17.6 °F 52% 30.22 in 10.0 mi SSE 8.1 mph - N/A   Clear
12:35 AM 35.6 °F 29.2 °F 19.4 °F 52% 30.22 in 10.0 mi SSE 8.1 mph - N/A   Clear
12:55 AM 35.6 °F 29.9 °F 17.6 °F 48% 30.23 in 10.0 mi SSE 6.9 mph - N/A   Clear
1:15 AM 33.8 °F 27.0 °F 17.6 °F 52% 30.22 in 10.0 mi South 8.1 mph - N/A   Clear
1:35 AM 33.8 °F 27.7 °F 17.6 °F 52% 30.23 in 10.0 mi SSE 6.9 mph - N/A   Clear
1:55 AM 32.0 °F 26.4 °F 17.6 °F 55% 30.23 in 10.0 mi SSE 5.8 mph - N/A   Clear
2:15 AM 33.8 °F 29.6 °F 17.6 °F 52% 30.23 in 10.0 mi SSW 4.6 mph - N/A   Clear
2:35 AM 33.8 °F 27.7 °F 17.6 °F 52% 30.22 in 10.0 mi SW 6.9 mph - N/A   Clear
2:55 AM 33.8 °F 25.8 °F 19.4 °F 56% 30.22 in 10.0 mi SW 10.4 mph - N/A   Clear
3:15 AM 35.6 °F 27.5 °F 19.4 °F 52% 30.21 in 10.0 mi SW 11.5 mph - N/A   Clear
3:35 AM 35.6 °F 29.9 °F 19.4 °F 52% 30.22 in 10.0 mi South 6.9 mph - N/A   Clear
3:55 AM 33.8 °F 27.7 °F 19.4 °F 56% 30.22 in 10.0 mi SSW 6.9 mph - N/A   Clear
4:15 AM 33.8 °F 28.6 °F 19.4 °F 56% 30.22 in 10.0 mi SSW 5.8 mph - N/A   Clear
4:35 AM 32.0 °F 23.6 °F 19.4 °F 60% 30.21 in 10.0 mi SW 10.4 mph - N/A   Clear
4:55 AM 33.8 °F 27.7 °F 19.4 °F 56% 30.22 in 10.0 mi SW 6.9 mph - N/A   Clear
5:15 AM 32.0 °F 28.7 °F 19.4 °F 60% 30.23 in 10.0 mi SSW 3.5 mph - N/A   Clear
5:35 AM 32.0 °F - 17.6 °F 55% 30.23 in 10.0 mi Calm Calm - N/A   Clear
5:55 AM 32.0 °F 28.7 °F 19.4 °F 60% 30.23 in 10.0 mi SSW 3.5 mph - N/A   Clear
6:15 AM 30.2 °F 23.4 °F 19.4 °F 64% 30.22 in 10.0 mi SW 6.9 mph - N/A   Clear
6:35 AM 30.2 °F - 19.4 °F 64% 30.22 in 10.0 mi Calm Calm - N/A   Clear
6:55 AM 33.8 °F 29.6 °F 19.4 °F 56% 30.22 in 10.0 mi SSW 4.6 mph - N/A   Clear
7:15 AM 32.0 °F 27.5 °F 19.4 °F 60% 30.23 in 10.0 mi South 4.6 mph - N/A   Clear
7:35 AM 30.2 °F 26.7 °F 19.4 °F 64% 30.24 in 10.0 mi SSW 3.5 mph - N/A   Clear
7:55 AM 33.8 °F 28.6 °F 19.4 °F 56% 30.25 in 10.0 mi SW 5.8 mph - N/A   Clear
8:15 AM 37.4 °F 31.4 °F 19.4 °F 48% 30.25 in 10.0 mi SSW 8.1 mph - N/A   Clear
8:55 AM 39.2 °F 34.2 °F 19.4 °F 45% 30.26 in 10.0 mi South 6.9 mph - N/A   Clear
9:15 AM 39.2 °F 35.0 °F 21.2 °F 49% 30.26 in 10.0 mi South 5.8 mph - N/A   Clear
9:35 AM 42.8 °F - 21.2 °F 42% 30.27 in 10.0 mi Calm Calm - N/A   Clear
9:55 AM 44.6 °F 38.8 °F 21.2 °F 39% 30.25 in 10.0 mi SSW 11.5 mph - N/A   Clear
10:15 AM 46.4 °F 41.9 °F 21.2 °F 37% 30.25 in 10.0 mi South 9.2 mph - N/A   Clear
10:35 AM 50.0 °F - 23.0 °F 35% 30.26 in 10.0 mi SSW 6.9 mph - N/A   Clear
11:15 AM 53.6 °F - 24.8 °F 33% 30.24 in 10.0 mi SSW 10.4 mph - N/A   Clear
11:35 AM 55.4 °F - 24.8 °F 31% 30.25 in 10.0 mi SSW 12.7 mph - N/A   Clear
11:55 AM 57.2 °F - 24.8 °F 29% 30.24 in 10.0 mi South 13.8 mph 20.7 mph N/A   Clear
12:15 PM 57.2 °F - 24.8 °F 29% 30.23 in 10.0 mi SSW 13.8 mph - N/A   Clear
12:35 PM 57.2 °F - 24.8 °F 29% 30.21 in 10.0 mi SSW 16.1 mph 23.0 mph N/A   Clear
12:55 PM 59.0 °F - 24.8 °F 27% 30.20 in 10.0 mi South 15.0 mph 20.7 mph N/A   Clear
1:15 PM 60.8 °F - 24.8 °F 25% 30.19 in 10.0 mi South 19.6 mph 24.2 mph N/A   Clear
1:35 PM 60.8 °F - 24.8 °F 25% 30.17 in 10.0 mi South 17.3 mph 21.9 mph N/A   Clear
1:55 PM 60.8 °F - 24.8 °F 25% 30.17 in 10.0 mi South 15.0 mph 20.7 mph N/A   Clear
2:15 PM 60.8 °F - 24.8 °F 25% 30.15 in 10.0 mi South 18.4 mph 23.0 mph N/A   Clear
2:35 PM 62.6 °F - 24.8 °F 24% 30.15 in 10.0 mi South 17.3 mph 23.0 mph N/A   Clear
2:55 PM 60.8 °F - 24.8 °F 25% 30.14 in 10.0 mi South 13.8 mph 19.6 mph N/A   Clear
3:15 PM 62.6 °F - 24.8 °F 24% 30.14 in 10.0 mi SSW 12.7 mph 20.7 mph N/A   Clear
3:35 PM 62.6 °F - 24.8 °F 24% 30.14 in 10.0 mi South 17.3 mph 20.7 mph N/A   Clear
3:55 PM 60.8 °F - 24.8 °F 25% 30.13 in 10.0 mi South 12.7 mph 20.7 mph N/A   Clear
4:15 PM 62.6 °F - 24.8 °F 24% 30.12 in 10.0 mi South 16.1 mph - N/A   Clear
4:35 PM 62.6 °F - 24.8 °F 24% 30.12 in 10.0 mi South 18.4 mph 21.9 mph N/A   Clear
4:55 PM 60.8 °F - 24.8 °F 25% 30.12 in 10.0 mi South 15.0 mph - N/A   Clear
5:15 PM 60.8 °F - 24.8 °F 25% 30.12 in 10.0 mi South 15.0 mph - N/A   Clear
5:35 PM 59.0 °F - 24.8 °F 27% 30.12 in 10.0 mi South 15.0 mph - N/A   Clear
5:55 PM 57.2 °F - 24.8 °F 29% 30.12 in 10.0 mi SSE 11.5 mph - N/A   Clear
6:15 PM 55.4 °F - 23.0 °F 29% 30.12 in 10.0 mi South 11.5 mph - N/A   Clear
6:35 PM 53.6 °F - 23.0 °F 30% 30.13 in 10.0 mi South 9.2 mph - N/A   Clear
6:55 PM 51.8 °F - 24.8 °F 35% 30.14 in 10.0 mi South 10.4 mph - N/A   Clear
7:35 PM 48.2 °F - 23.0 °F 37% 30.15 in 10.0 mi South 8.1 mph - N/A   Clear
7:55 PM 48.2 °F - 23.0 °F 37% 30.16 in 10.0 mi South 9.2 mph - N/A   Clear
8:15 PM 46.4 °F 41.5 °F 23.0 °F 40% 30.16 in 10.0 mi South 10.4 mph - N/A   Clear
8:35 PM 46.4 °F 41.5 °F 24.8 °F 43% 30.16 in 10.0 mi South 10.4 mph - N/A   Clear
8:55 PM 46.4 °F 40.7 °F 24.8 °F 43% 30.16 in 10.0 mi South 12.7 mph - N/A   Clear
9:15 PM 46.4 °F 41.1 °F 23.0 °F 40% 30.17 in 10.0 mi South 11.5 mph - N/A   Clear
9:35 PM 44.6 °F 39.7 °F 23.0 °F 43% 30.18 in 10.0 mi South 9.2 mph - N/A   Clear
9:55 PM 44.6 °F 40.2 °F 23.0 °F 43% 30.19 in 10.0 mi SSE 8.1 mph - N/A   Clear
10:15 PM 42.8 °F 38.6 °F 23.0 °F 46% 30.19 in 10.0 mi South 6.9 mph - N/A   Clear
10:55 PM 39.2 °F 33.6 °F 21.2 °F 49% 30.19 in 10.0 mi South 8.1 mph - N/A   Clear
11:15 PM 39.2 °F 33.6 °F 23.0 °F 52% 30.19 in 10.0 mi South 8.1 mph - N/A   Clear
11:35 PM 39.2 °F 33.6 °F 23.0 °F 52% 30.19 in 10.0 mi South 8.1 mph - N/A   Clear
11:55 PM 39.2 °F 33.6 °F 23.0 °F 52% 30.19 in 10.0 mi South 8.1 mph - N/A   Clear